Terminal Aerodrome Forecast
Issued by NWS

Current Version | Previous Version | Graphics & Text | Print | Product List | Glossary On
Versions: 1 2 3 4 5 6 7 8 9 10 11 12
000
FTUS41 KRNK 191720
TAFLWB
TAF
KLWB 191720Z 1918/2018 02007KT P6SM SCT045 BKN150
     FM200200 VRB03KT P6SM BKN250
     FM201500 05006KT P6SM SKC=

USA.gov is the U.S. government's official web portal to all federal, state and local government web resources and services.